User: anonymous   Login
Location: Unspecified
(0.0000°N, 0.0000°E)
Time: 06:49:55
(UTC+00:00)
Language:

TBA - TO BE ASSIGNED - Orbit

View from above orbital plane
View from above orbital plane
View from above satellite
View from above satellite

Ground track
Ground track

The orbit is defined by the following mean orbital elements,

1 67410U          26145.39751550 +.00000000 +00000-0 +70500-3 0 00009
2 67410  43.0005 165.1537 0001688 270.0419  90.0239 15.27601144    00
Epoch (UTC): 25 May 2026 09:32:25
Eccentricity: 0.0001688
inclination: 43.0005°
perigee height: 482 km
apogee height: 484 km
right ascension of ascending node: 165.1537°
argument of perigee: 270.0419°
revolutions per day: 15.27601144
mean anomaly at epoch: 90.0239°

The dashed part of the orbit path shows where the satellite is in the earth's shadow,  

DLR